User: anonymous   Login
Location: Austin
(30.3000°N, 97.7500°W)
Time: 04:59:05
(UTC-05:00)
Language:

Cosmos 2285 Rocket - Orbit

View from above orbital plane
View from above orbital plane
View from above satellite
View from above satellite

Ground track
Ground track

The orbit is defined by the following mean orbital elements,

1 23190U          26110.14437255 +.00000000 +00000-0 -18908-4 0 00000
2 23190  74.0272 150.9991 0018404 134.9232 225.3384 13.74385618    07
Epoch (UTC): 20 April 2026 03:27:53
Eccentricity: 0.0018404
inclination: 74.0272°
perigee height: 970 km
apogee height: 997 km
right ascension of ascending node: 150.9991°
argument of perigee: 134.9232°
revolutions per day: 13.74385618
mean anomaly at epoch: 225.3384°

The dashed part of the orbit path shows where the satellite is in the earth's shadow,  

DLR